FW4331 Weather Reports


Display with metric or nautical units.
time (UTC)temp
F
wind
direction
speed
MPH
gust
MPH
rain 1hr
in
rain 24hr
in
rain mn
in
humidity
%
barometer
mb
20260503021608 52 335 2.0 12.0 0.00 0.00 0.00 37 1012.9
20260503020004 52 317 0.0 5.0 0.00 0.00 0.00 38 1012.9
20260503014502 52 11 0.0 7.0 0.00 0.00 0.00 37 1012.7
20260503013100 52 18 0.0 5.0 0.00 0.00 0.00 37 1012.5
20260503011604 52 19 0.0 5.0 0.00 0.00 0.00 37 1012.4
20260503010108 53 348 0.0 3.0 0.00 0.00 0.00 36 1012.0
20260503004554 53 341 0.0 4.0 0.00 0.00 0.00 36 1011.7
20260503003059 53 346 3.0 7.0 0.00 0.00 0.00 35 1011.5
20260503001550 54 23 1.0 12.0 0.00 0.00 0.00 34 1011.4
20260503000054 54 322 2.0 10.0 0.00 0.00 0.00 34 1011.3
20260502234546 54 349 1.0 8.0 0.00 0.00 0.00 33 1010.8
20260502233043 55 11 2.0 9.0 0.00 0.00 0.00 32 1010.7
20260502231541 55 307 1.0 12.0 0.00 0.00 0.00 32 1010.8
20260502230038 56 56 4.0 9.0 0.00 0.00 0.00 31 1010.6
20260502224535 56 41 3.0 13.0 0.00 0.00 0.00 31 1010.7
20260502223034 56 35 4.0 10.0 0.00 0.00 0.00 28 1010.6
20260502221531 57 319 2.0 7.0 0.00 0.00 0.00 27 1010.6
20260502220031 58 295 0.0 10.0 0.00 0.00 0.00 28 1010.5
20260502214527 57 266 3.0 12.0 0.00 0.00 0.00 28 1010.7
20260502213037 58 57 4.0 10.0 0.00 0.00 0.00 29 1010.5
20260502211526 58 27 2.0 6.0 0.00 0.00 0.00 28 1010.6
20260502210021 58 343 2.0 10.0 0.00 0.00 0.00 26 1010.7
20260502204520 59 343 2.0 8.0 0.00 0.00 0.00 27 1010.6
20260502203015 58 5 4.0 11.0 0.00 0.00 0.00 28 1010.5
20260502201523 59 349 4.0 10.0 0.00 0.00 0.00 27 1010.5
20260502200011 58 340 1.0 8.0 0.00 0.00 0.00 27 1010.5
20260502194509 57 25 4.0 13.0 0.00 0.00 0.00 27 1010.8
20260502193004 57 359 3.0 13.0 0.00 0.00 0.00 28 1011.0
20260502191502 58 314 4.0 13.0 0.00 0.00 0.00 28 1011.1
20260502190059 57 360 1.0 12.0 0.00 0.00 0.00 28 1011.4
20260502184602 58 70 1.0 8.0 0.00 0.00 0.00 29 1011.7
20260502183057 57 351 4.0 14.0 0.00 0.00 0.00 30 1011.9
20260502181608 57 27 6.0 13.0 0.00 0.00 0.00 29 1012.2
20260502163033 56 43 4.0 12.0 0.00 0.00 0.00 31 1013.0
20260502161531 54 60 0.0 7.0 0.00 0.00 0.00 35 1013.2
20260502151521 53 284 4.0 10.0 0.00 0.00 0.00 38 1013.4
20260502130104 48 2 9.0 19.0 0.00 0.00 0.00 47 1013.2
20260502123053 47 32 6.0 13.0 0.00 0.00 0.00 48 1013.1
20260502121551 47 341 7.0 14.0 0.00 0.00 0.00 48 1013.3
20260502114549 47 19 0.0 5.0 0.00 0.00 0.00 51 1013.3
20260502113043 47 305 1.0 7.0 0.00 0.00 0.00 51 1013.1
20260502111541 47 20 1.0 11.0 0.00 0.00 0.00 51 1013.2
20260502110040 46 331 5.0 12.0 0.00 0.00 0.00 50 1013.1
20260502104536 47 356 3.0 9.0 0.00 0.00 0.00 50 1013.0
20260502103029 47 11 5.0 14.0 0.00 0.00 0.00 49 1012.8
20260502101532 47 278 2.0 16.0 0.00 0.00 0.00 49 1012.7
20260502091507 49 356 3.0 13.0 0.00 0.00 0.00 48 1012.1
20260502070037 54 35 2.0 9.0 0.00 0.00 0.00 48 1011.5
20260502064548 54 299 0.0 6.0 0.00 0.00 0.00 48 1011.2
20260502063034 54 351 2.0 7.0 0.00 0.00 0.00 48 1011.3
20260502061524 54 13 3.0 13.0 0.00 0.00 0.00 47 1011.4
20260502060020 55 6 1.0 7.0 0.00 0.00 0.00 47 1011.5
20260502054515 55 14 0.0 5.0 0.00 0.00 0.00 46 1011.7
20260502053013 55 20 2.0 10.0 0.00 0.00 0.00 46 1011.7
20260502051509 55 31 0.0 8.0 0.00 0.00 0.00 46 1011.7
20260502050020 55 51 2.0 5.0 0.00 0.00 0.00 46 1011.9
20260502044508 56 17 0.0 3.0 0.00 0.00 0.00 47 1011.8
20260502043003 56 7 0.0 1.0 0.00 0.00 0.00 47 1011.9
20260502041601 56 50 0.0 6.0 0.00 0.00 0.00 47 1011.7
20260502040106 56 8 3.0 9.0 0.00 0.00 0.00 46 1011.4
20260502034556 57 37 5.0 13.0 0.00 0.00 0.00 45 1011.2
20260502033052 57 292 3.0 12.0 0.00 0.00 0.00 46 1011.0
20260502031602 58 12 1.0 7.0 0.00 0.00 0.00 48 1010.8
20260502030050 57 350 0.0 1.0 0.00 0.00 0.00 50 1010.6
20260502024547 58 216 0.0 0.0 0.00 0.00 0.00 47 1010.2
20260502023052 58 224 0.0 2.0 0.00 0.00 0.00 44 1010.0